Location: Barnston
(51.8500°N, 0.4000°E)
Time: 11:45:13
(UTC+00:00)

Cosmos 1484 Rocket - Pass Details

Date: 26 September 2023
Orbit: 490 x 533 km, 97.5° (Epoch: 29 November)

Event Time Altitude Azimuth Distance (km) Brightness Sun altitude
Rises 04:00:45 0° 18° (NNE) 2,593 6.8 -17.4°
Reaches altitude 10° 04:02:55 10° 24° (NNE) 1,700 6.0 -17.1°
Maximum altitude 04:06:26 46° 99° (E) 667 3.6 -16.6°
Drops below altitude 10° 04:09:56 10° 175° (S) 1,679 5.1 -16.1°
Enters shadow 04:11:50 - 181° (S) 2,472 6.0 -15.8°
